User: anonymous   Login
Location: Matagami
(49.7589°N, 77.6258°W)
Time: 08:19:32
(UTC-04:00)
Language:

ISS - Orbit

View from above orbital plane
View from above orbital plane
View from above satellite
View from above satellite

Ground track
Ground track

The orbit data is extracted from the following two-line orbital elements,

1 25544U 98067A   21132.16955024  .00000805  00000-0  22776-4 0  9992
2 25544  51.6438 160.8760 0003059 351.2781 119.3279 15.48991656283011
Epoch (UTC): 12 May 2021 04:04:09
Eccentricity: 0.0003059
inclination: 51.6438°
perigee height: 417 km
apogee height: 422 km
right ascension of ascending node: 160.8760°
argument of perigee: 351.2781°
revolutions per day: 15.48991656
mean anomaly at epoch: 119.3279°
orbit number at epoch: 28301

The dashed part of the orbit path shows where the satellite is in the earth's shadow,  

DLR